N23WS KOWB-KEVV

Flight info

Callsign N23WS
Flight time 0h 15m
Altitude 6000
Route
Aircraft PC12/L-VGDW/C

Departure

Time 2026-05-06 06:17
Airport Owensboro Daviess County Airport (KOWB)

Arrival

Time 2026-05-06 06:32
Airport Evansville Regional Airport (KEVV)
Time Latitude Longitude Altitude Speed Heading
2026-05-06 06:12 37.73707 -87.16402 401 ft 0 kts 90°
2026-05-06 06:13 37.73694 -87.16384 400 ft 9 kts 191°
2026-05-06 06:13 37.73718 -87.16423 401 ft 8 kts 351°
2026-05-06 06:13 37.73781 -87.16445 401 ft 9 kts 297°
2026-05-06 06:14 37.73770 -87.16535 401 ft 12 kts 220°
2026-05-06 06:14 37.73669 -87.16537 401 ft 17 kts 178°
2026-05-06 06:14 37.73531 -87.16530 401 ft 20 kts 177°
2026-05-06 06:14 37.73385 -87.16523 401 ft 19 kts 178°
2026-05-06 06:15 37.73262 -87.16517 400 ft 15 kts 177°
2026-05-06 06:15 37.73148 -87.16511 400 ft 17 kts 178°
2026-05-06 06:15 37.73022 -87.16505 400 ft 18 kts 178°
2026-05-06 06:15 37.72893 -87.16499 400 ft 18 kts 177°
2026-05-06 06:16 37.72763 -87.16492 400 ft 18 kts 182°
2026-05-06 06:16 37.72711 -87.16560 400 ft 10 kts 270°
2026-05-06 06:16 37.72716 -87.16655 400 ft 11 kts 298°
2026-05-06 06:16 37.72888 -87.16679 400 ft 59 kts 358°
2026-05-06 06:17 37.73477 -87.16706 591 ft 95 kts 352°
2026-05-06 06:17 37.74123 -87.16818 1153 ft 96 kts 340°
2026-05-06 06:17 37.74697 -87.17337 1632 ft 113 kts 322°
2026-05-06 06:17 37.75220 -87.18030 2336 ft 113 kts 317°
2026-05-06 06:18 37.75741 -87.18748 2993 ft 113 kts 315°
2026-05-06 06:18 37.76293 -87.19466 3602 ft 119 kts 314°
2026-05-06 06:18 37.76856 -87.20172 4317 ft 117 kts 310°
2026-05-06 06:18 37.77430 -87.20880 4946 ft 120 kts 308°
2026-05-06 06:19 37.78025 -87.21601 5606 ft 119 kts 304°
2026-05-06 06:19 37.78649 -87.22365 5967 ft 139 kts 305°
2026-05-06 06:19 37.79433 -87.23322 5993 ft 172 kts 307°
2026-05-06 06:19 37.80357 -87.24435 5989 ft 195 kts 308°
2026-05-06 06:20 37.81390 -87.25671 5990 ft 209 kts 309°
2026-05-06 06:20 37.82464 -87.26960 5977 ft 218 kts 307°
2026-05-06 06:20 37.83123 -87.28590 5990 ft 210 kts 274°
2026-05-06 06:20 37.83003 -87.30448 5770 ft 220 kts 262°
2026-05-06 06:21 37.82879 -87.32458 5412 ft 233 kts 266°
2026-05-06 06:21 37.82845 -87.34372 5100 ft 207 kts 269°
2026-05-06 06:21 37.82772 -87.36204 4801 ft 208 kts 268°
2026-05-06 06:21 37.82717 -87.38030 4524 ft 209 kts 269°
2026-05-06 06:22 37.82649 -87.39871 4196 ft 212 kts 269°
2026-05-06 06:22 37.82579 -87.41740 3988 ft 209 kts 270°
2026-05-06 06:22 37.82513 -87.43551 3858 ft 206 kts 271°
2026-05-06 06:22 37.82446 -87.45371 3724 ft 205 kts 270°
2026-05-06 06:23 37.82379 -87.47151 3601 ft 204 kts 270°
2026-05-06 06:23 37.82314 -87.48945 3469 ft 205 kts 271°
2026-05-06 06:23 37.82291 -87.50733 3329 ft 197 kts 281°
2026-05-06 06:23 37.82764 -87.52288 3183 ft 186 kts 308°
2026-05-06 06:24 37.83646 -87.53362 3052 ft 169 kts 331°
2026-05-06 06:24 37.84685 -87.53852 2917 ft 152 kts 352°
2026-05-06 06:24 37.85711 -87.53899 2787 ft 141 kts
2026-05-06 06:24 37.86671 -87.53869 2665 ft 138 kts
2026-05-06 06:25 37.87629 -87.53831 2545 ft 138 kts
2026-05-06 06:25 37.88591 -87.53805 2490 ft 134 kts
2026-05-06 06:25 37.90384 -87.53764 2486 ft 123 kts
2026-05-06 06:26 37.91221 -87.53745 2483 ft 119 kts
2026-05-06 06:26 37.92050 -87.53725 2478 ft 116 kts
2026-05-06 06:26 37.92853 -87.53705 2464 ft 114 kts
2026-05-06 06:26 37.93592 -87.53685 2309 ft 96 kts
2026-05-06 06:27 37.94199 -87.53670 2170 ft 79 kts
2026-05-06 06:27 37.94667 -87.53658 2086 ft 56 kts
2026-05-06 06:27 37.95089 -87.53655 2011 ft 65 kts
2026-05-06 06:27 37.95496 -87.53634 1880 ft 52 kts
2026-05-06 06:28 37.95879 -87.53623 1832 ft 57 kts
2026-05-06 06:28 37.96308 -87.53630 1759 ft 59 kts
2026-05-06 06:28 37.96724 -87.53624 1630 ft 63 kts
2026-05-06 06:28 37.97181 -87.53605 1555 ft 65 kts
2026-05-06 06:29 37.97648 -87.53600 1519 ft 67 kts
2026-05-06 06:29 37.98100 -87.53580 1443 ft 63 kts
2026-05-06 06:29 37.98544 -87.53570 1336 ft 67 kts
2026-05-06 06:29 37.99008 -87.53563 1246 ft 66 kts
2026-05-06 06:30 37.99491 -87.53549 1148 ft 69 kts
2026-05-06 06:30 37.99948 -87.53542 1021 ft 65 kts
2026-05-06 06:30 38.00409 -87.53523 951 ft 64 kts
2026-05-06 06:30 38.00851 -87.53513 875 ft 67 kts
2026-05-06 06:31 38.01328 -87.53495 769 ft 64 kts
2026-05-06 06:31 38.01792 -87.53484 685 ft 67 kts
2026-05-06 06:31 38.02265 -87.53471 586 ft 65 kts
2026-05-06 06:31 38.02745 -87.53459 479 ft 68 kts
2026-05-06 06:32 38.03215 -87.53447 402 ft 64 kts
2026-05-06 06:32 38.03568 -87.53434 384 ft 30 kts
2026-05-06 06:32 38.03690 -87.53468 384 ft 12 kts 292°
2026-05-06 06:32 38.03692 -87.53552 384 ft 7 kts 259°
2026-05-06 06:33 38.03650 -87.53578 384 ft 8 kts 187°
2026-05-06 06:33 38.03618 -87.53628 384 ft 7 kts 271°
2026-05-06 06:33 38.03630 -87.53669 384 ft 3 kts 357°
2026-05-06 06:33 38.03643 -87.53668 384 ft 0 kts
2026-05-06 06:34 38.03639 -87.53668 384 ft 0 kts 359°